Hourly Data Report for August 28, 2015

All times are specified in Local Standard Time (LST). Add 1 hour to adjust for Daylight Saving Time where and when it is observed.

TORONTO INTL A
ONTARIO

43°40'36.000" N
79°37'50.000" W
173.40 m
6158731
71624
YYZ

Download Data

Hourly Data (August 2015)
Hourly Data Report for August 28, 2015
Temp Definition
°C
Dew Point Temp Definition
°C
Rel Hum Definition
%
Wind Dir Definition
10's deg

Wind Spd Definition
km/h
Visibility Definition
km
Stn Press Definition
kPa
Hmdx Definition


Wind Chill Definition


Weather Definition


TIME
00:00 Legend Double Dagger 14.9 11.3 79 31 8 24.1 100.10     LegendNANA
01:00 Legend Double Dagger 14.7 11.1 79 32 7 24.1 100.08     Mainly Clear
02:00 Legend Double Dagger 13.8 11.0 83 34 7 24.1 100.04     LegendNANA
03:00 Legend Double Dagger 13.1 10.7 85 1 5 24.1 100.04     LegendNANA
04:00 Legend Double Dagger 12.1 9.9 86 1 5 24.1 100.07     Clear
05:00 Legend Double Dagger 12.1 10.0 87 36 1 24.1 100.11     LegendNANA
06:00 Legend Double Dagger 12.2 9.4 83 31 8 24.1 100.19     LegendNANA
07:00 Legend Double Dagger 13.9 10.4 79 32 8 24.1 100.24     Clear
08:00 Legend Double Dagger 15.8 10.8 72 31 4 24.1 100.26     LegendNANA
09:00 Legend Double Dagger 17.4 11.1 66 30 7 24.1 100.24     LegendNANA
10:00 Legend Double Dagger 19.3 11.4 60 20 3 24.1 100.24     Mainly Clear
11:00 Legend Double Dagger 19.9 11.8 59 28 14 24.1 100.22     LegendNANA
12:00 Legend Double Dagger 20.5 12.6 60 33 9 24.1 100.16     LegendNANA
13:00 Legend Double Dagger 22.3 12.1 52 26 12 24.1 100.13 25   Mainly Clear
14:00 Legend Double Dagger 21.5 12.5 56 14 9 24.1 100.09     LegendNANA
15:00 Legend Double Dagger 22.2 12.6 54 12 17 24.1 100.04 25   LegendNANA
16:00 Legend Double Dagger 22.7 12.8 53 13 14 24.1 99.98 25   Mostly Cloudy
17:00 Legend Double Dagger 21.9 12.6 55 17 15 24.1 100.00     LegendNANA
18:00 Legend Double Dagger 20.9 13.5 62 16 14 24.1 99.99     LegendNANA
19:00 Legend Double Dagger 19.6 13.8 69 16 11 24.1 100.00     Mostly Cloudy
20:00 Legend Double Dagger 18.4 14.4 77 15 8 24.1 100.03     LegendNANA
21:00 Legend Double Dagger 18.3 14.8 80 16 8 24.1 100.04     LegendNANA
22:00 Legend Double Dagger 18.3 15.0 81 15 5 24.1 100.01     Mostly Cloudy
23:00 Legend Double Dagger 18.0 14.7 81 16 5 24.1 100.01     LegendNANA

Notes on Data Quality.

Legend

  • E = Estimated
  • M = Missing
  • NA = Not Available
  • ‡ = Partner data that is not subject to review by the National Climate Archives
Date modified: